When you browse on this site, cookies collect data to enhance your experience and personalize the content and advertising you see.
Visit our Privacy Policy to learn more. By continuing to use the site, you agree to this use of cookies and data.
  • In Hungary
  • List of Countries
  • For 7 days
  • Water Temperature
  • Weather Map
  • News
  • Weather Widgets
  • user-avatar
    Login

    Hourly Weather Shkoder

    Today, 27 May, Wednesday

    Time Temperature Precipitation Wind Pressure Humidity
    00:00 +10°C° 0 mm 3 mps 743 mmHg 74%
    01:00 +10°C° 0 mm 3 mps 743 mmHg 76%
    02:00 +10°C° 0 mm 3 mps 743 mmHg 77%
    03:00 +9°C° 0 mm 3 mps 743 mmHg 78%
    04:00 +9°C° 0 mm 3 mps 743 mmHg 79%
    05:00 +11°C° 0 mm 3 mps 744 mmHg 74%
    06:00 +12°C° 0 mm 3 mps 744 mmHg 70%
    07:00 +14°C° 0 mm 3 mps 744 mmHg 65%
    08:00 +16°C° 0 mm 3 mps 744 mmHg 62%
    09:00 +17°C° 0 mm 3 mps 744 mmHg 59%
    10:00 +18°C° 0 mm 3 mps 745 mmHg 56%
    11:00 +19°C° 0.2 mm 3 mps 744 mmHg 55%
    12:00 +19°C° 0.2 mm 3 mps 744 mmHg 54%
    13:00 +19°C° 0.2 mm 3 mps 744 mmHg 54%
    14:00 +19°C° 0.2 mm 3 mps 744 mmHg 54%
    15:00 +19°C° 0.2 mm 2 mps 743 mmHg 55%
    16:00 +19°C° 0.2 mm 2 mps 743 mmHg 56%
    17:00 +18°C° 0 mm 2 mps 743 mmHg 62%
    18:00 +16°C° 0 mm 3 mps 743 mmHg 68%
    19:00 +14°C° 0 mm 3 mps 743 mmHg 74%
    20:00 +13°C° 0 mm 3 mps 744 mmHg 74%
    21:00 +12°C° 0 mm 3 mps 744 mmHg 74%
    22:00 +12°C° 0 mm 3 mps 744 mmHg 74%
    23:00 +13°C° 0 mm 2 mps 744 mmHg 74%

    Tomorrow, 28 May, Thursday

    Time Temperature Precipitation Wind Pressure Humidity
    00:00 +13°C° 0 mm 2 mps 744 mmHg 74%
    01:00 +12°C° 0 mm 2 mps 744 mmHg 74%
    02:00 +12°C° 0 mm 2 mps 744 mmHg 75%
    03:00 +12°C° 0 mm 2 mps 743 mmHg 75%
    04:00 +12°C° 0 mm 2 mps 743 mmHg 75%
    05:00 +13°C° 0 mm 2 mps 743 mmHg 72%
    06:00 +15°C° 0 mm 2 mps 743 mmHg 68%
    07:00 +16°C° 0 mm 2 mps 743 mmHg 64%
    08:00 +18°C° 0 mm 2 mps 743 mmHg 60%
    09:00 +19°C° 0 mm 2 mps 743 mmHg 56%
    10:00 +20°C° 0 mm 2 mps 743 mmHg 52%
    11:00 +21°C° 0.4 mm 2 mps 742 mmHg 52%
    12:00 +21°C° 0.4 mm 2 mps 742 mmHg 53%
    13:00 +21°C° 0.4 mm 3 mps 741 mmHg 53%
    14:00 +21°C° 0.8 mm 2 mps 741 mmHg 56%
    15:00 +20°C° 0.8 mm 2 mps 741 mmHg 59%
    16:00 +20°C° 0.8 mm 2 mps 741 mmHg 63%
    17:00 +19°C° 0.5 mm 2 mps 741 mmHg 68%
    18:00 +17°C° 0.5 mm 2 mps 741 mmHg 74%
    19:00 +16°C° 0.5 mm 2 mps 740 mmHg 79%
    20:00 +15°C° 0.2 mm 2 mps 741 mmHg 80%
    21:00 +15°C° 0.2 mm 2 mps 741 mmHg 81%
    22:00 +14°C° 0.2 mm 2 mps 741 mmHg 82%
    23:00 +13°C° 0.1 mm 2 mps 741 mmHg 81%

    Day after tomorrow, 29 May, Friday

    Time Temperature Precipitation Wind Pressure Humidity
    00:00 +13°C° 0.1 mm 2 mps 741 mmHg 80%
    01:00 +13°C° 0.1 mm 2 mps 740 mmHg 79%
    02:00 +12°C° 0 mm 2 mps 740 mmHg 79%
    03:00 +12°C° 0 mm 2 mps 740 mmHg 78%
    04:00 +12°C° 0 mm 2 mps 740 mmHg 78%
    05:00 +13°C° 0 mm 2 mps 740 mmHg 74%
    06:00 +15°C° 0 mm 2 mps 740 mmHg 71%
    07:00 +16°C° 0 mm 1 mps 740 mmHg 67%
    08:00 +18°C° 0 mm 1 mps 740 mmHg 62%
    09:00 +20°C° 0 mm 1 mps 740 mmHg 57%
    10:00 +21°C° 0 mm 1 mps 740 mmHg 52%
    11:00 +20°C° 0.1 mm 2 mps 740 mmHg 51%
    12:00 +21°C° 0.1 mm 2 mps 740 mmHg 50%
    13:00 +21°C° 0.1 mm 3 mps 739 mmHg 50%
    14:00 +21°C° 0.1 mm 3 mps 739 mmHg 52%
    15:00 +21°C° 0.1 mm 3 mps 739 mmHg 54%
    16:00 +20°C° 0.1 mm 3 mps 738 mmHg 56%
    17:00 +19°C° 0.1 mm 2 mps 739 mmHg 63%
    18:00 +18°C° 0.1 mm 1 mps 739 mmHg 71%
    19:00 +16°C° 0.1 mm 1 mps 739 mmHg 78%
    20:00 +15°C° 0.3 mm 1 mps 740 mmHg 79%
    21:00 +15°C° 0.3 mm 1 mps 740 mmHg 81%
    22:00 +14°C° 0.3 mm 1 mps 740 mmHg 82%
    23:00 +14°C° 0.3 mm 1 mps 740 mmHg 83%

    30 May, Saturday

    Time Temperature Precipitation Wind Pressure Humidity
    00:00 +14°C° 0.3 mm 1 mps 740 mmHg 85%
    01:00 +14°C° 0.3 mm 1 mps 740 mmHg 86%
    02:00 +14°C° 0.1 mm 1 mps 740 mmHg 85%
    03:00 +13°C° 0.1 mm 1 mps 740 mmHg 84%
    04:00 +13°C° 0.1 mm 1 mps 740 mmHg 83%
    05:00 +14°C° 0.1 mm 1 mps 740 mmHg 82%
    06:00 +14°C° 0.1 mm 1 mps 740 mmHg 81%
    07:00 +15°C° 0.1 mm 1 mps 740 mmHg 80%
    08:00 +15°C° 0.3 mm 1 mps 740 mmHg 78%
    09:00 +16°C° 0.3 mm 1 mps 740 mmHg 77%
    10:00 +16°C° 0.3 mm 1 mps 740 mmHg 76%
    11:00 +17°C° 0.5 mm 2 mps 740 mmHg 75%
    12:00 +17°C° 0.5 mm 2 mps 740 mmHg 75%
    13:00 +18°C° 0.5 mm 2 mps 739 mmHg 74%
    14:00 +18°C° 0.6 mm 2 mps 739 mmHg 74%
    15:00 +18°C° 0.6 mm 2 mps 739 mmHg 73%
    16:00 +18°C° 0.6 mm 2 mps 739 mmHg 73%
    17:00 +17°C° 0.3 mm 2 mps 739 mmHg 78%
    18:00 +16°C° 0.3 mm 1 mps 739 mmHg 83%
    19:00 +14°C° 0.3 mm 1 mps 739 mmHg 88%
    20:00 +14°C° 0.1 mm 1 mps 739 mmHg 89%
    21:00 +13°C° 0.1 mm 1 mps 739 mmHg 89%
    22:00 +12°C° 0.1 mm 0 mps 740 mmHg 89%
    23:00 +13°C° 0 mm 1 mps 740 mmHg 88%

    31 May, Sunday

    Time Temperature Precipitation Wind Pressure Humidity
    00:00 +13°C° 0 mm 1 mps 740 mmHg 88%
    01:00 +13°C° 0 mm 1 mps 739 mmHg 87%
    02:00 +12°C° 0 mm 1 mps 739 mmHg 87%
    03:00 +12°C° 0 mm 1 mps 739 mmHg 87%
    04:00 +12°C° 0 mm 1 mps 739 mmHg 86%
    05:00 +13°C° 0 mm 1 mps 739 mmHg 82%
    06:00 +15°C° 0 mm 1 mps 739 mmHg 78%
    07:00 +16°C° 0 mm 1 mps 739 mmHg 74%
    08:00 +19°C° 0.3 mm 1 mps 739 mmHg 70%
    09:00 +20°C° 0.3 mm 1 mps 739 mmHg 66%
    10:00 +21°C° 0.3 mm 1 mps 739 mmHg 63%
    11:00 +20°C° 0.8 mm 2 mps 739 mmHg 64%
    12:00 +20°C° 0.8 mm 2 mps 739 mmHg 65%
    13:00 +20°C° 0.8 mm 3 mps 738 mmHg 66%
    14:00 +20°C° 0.8 mm 3 mps 738 mmHg 66%
    15:00 +20°C° 0.8 mm 2 mps 738 mmHg 67%
    16:00 +20°C° 0.8 mm 2 mps 738 mmHg 67%
    17:00 +18°C° 0.5 mm 2 mps 738 mmHg 73%
    18:00 +17°C° 0.5 mm 2 mps 738 mmHg 78%
    19:00 +15°C° 0.5 mm 1 mps 738 mmHg 84%
    20:00 +15°C° 0.3 mm 1 mps 738 mmHg 85%
    21:00 +14°C° 0.3 mm 1 mps 738 mmHg 87%
    22:00 +14°C° 0.3 mm 1 mps 738 mmHg 88%
    23:00 +14°C° 0.4 mm 1 mps 738 mmHg 89%

    1 June, Monday

    Time Temperature Precipitation Wind Pressure Humidity
    00:00 +14°C° 0.4 mm 1 mps 738 mmHg 89%
    01:00 +14°C° 0.4 mm 1 mps 738 mmHg 89%
    02:00 +14°C° 0.3 mm 1 mps 738 mmHg 89%
    03:00 +13°C° 0.3 mm 1 mps 738 mmHg 90%
    04:00 +13°C° 0.3 mm 1 mps 737 mmHg 90%
    05:00 +14°C° 0.2 mm 1 mps 737 mmHg 87%
    06:00 +15°C° 0.2 mm 1 mps 737 mmHg 83%
    07:00 +16°C° 0.2 mm 1 mps 737 mmHg 80%
    08:00 +18°C° 0.5 mm 1 mps 737 mmHg 77%
    09:00 +19°C° 0.5 mm 1 mps 737 mmHg 75%
    10:00 +19°C° 0.5 mm 2 mps 737 mmHg 72%
    11:00 +19°C° 0.7 mm 2 mps 736 mmHg 71%
    12:00 +20°C° 0.7 mm 2 mps 736 mmHg 71%
    13:00 +20°C° 0.7 mm 3 mps 736 mmHg 70%
    14:00 +20°C° 0.7 mm 2 mps 736 mmHg 71%
    15:00 +19°C° 0.7 mm 2 mps 736 mmHg 72%
    16:00 +19°C° 0.7 mm 2 mps 736 mmHg 73%
    17:00 +18°C° 0.4 mm 2 mps 736 mmHg 77%
    18:00 +17°C° 0.4 mm 2 mps 736 mmHg 81%
    19:00 +16°C° 0.4 mm 1 mps 736 mmHg 86%
    20:00 +16°C° 0.1 mm 1 mps 736 mmHg 86%
    21:00 +15°C° 0.1 mm 1 mps 736 mmHg 86%
    22:00 +15°C° 0.1 mm 1 mps 737 mmHg 87%
    23:00 +15°C° 0 mm 1 mps 736 mmHg 87%
    Show more